Location: Arapaho Elementary School
(32.9607°N, 96.7625°W)
Time: 12:53:07
(UTC+00:00)

Cosmos 1500 Rocket - Pass Details

Date: 10 July 2022
Orbit: 601 x 632 km, 82.5° (Epoch: 18 August)

Event Time Altitude Azimuth Distance (km) Brightness Sun altitude
Exits shadow 08:14:23 38° 58° (ENE) 963 4.8 -29.7°
Drops below altitude 10° 08:17:40 10° 21° (NNE) 2,016 7.1 -29.4°
Sets 08:19:59 0° 15° (NNE) 2,928 8.2 -29.1°
